Olivia, MN

6:51 AM CST on February 06, 2016 (GMT -0600)
Olivia Regional

Weather History for KOVL - January, 2013

Change the Weather History Date:

Wednesday, January 23, 2013

  Actual Average (KRWF) Record (KRWF)
Temperature  
Mean Temperature 2 °F -  
Max Temperature 10 °F 24 °F 56 °F (1981)
Min Temperature -7 °F 5 °F -26 °F (1935)
Degree Days  
Heating Degree Days 64    
Moisture  
Dew Point -2 °F    
Average Humidity 74    
Maximum Humidity 85    
Minimum Humidity 60    
Precipitation  
Precipitation 0.00 in - - ()
Sea Level Pressure  
Sea Level Pressure 30.30 in    
Wind  
Wind Speed 9 mph (NW)    
Max Wind Speed 26 mph    
Max Gust Speed 34 mph    
Visibility 7 miles    
Events Snow    
Averages and records for this station are not official NWS values.
T = Trace of Precipitation, MM = Missing Value Source: NWS Daily Summary

Daily Weather History Graph

Daily Weather History Graph

Search for Another Location

Airport or City:

Trip Planner

Search our weather history database for the weather conditions in past years. The results will help you decide how hot, cold, wet, or windy it might be!

Date:

Astronomy

Jan. 23, 2013 Rise Set
Actual Time 7:48 AM CST 5:16 PM CST
Civil Twilight 7:16 AM CST 5:48 PM CST
Nautical Twilight 6:40 AM CST 6:23 PM CST
Astronomical Twilight 6:06 AM CST 6:58 PM CST
Moon 2:25 PM CST (1/23) 5:02 AM CST (1/23)
Length of Visible Light 10h 32m
Length of Day
9h 28m
Waxing Gibbous, 89% of the Moon is Illuminated
Jan 23
Waxing Gibbous
Jan 26
Full
Feb 3
Last Quarter
Feb 10
New
Feb 17
First Quarter

Hourly Weather History & Observations

Time (CST) Temp. Windchill Dew Point Humidity Pressure Visibility Wind Dir Wind Speed Gust Speed Precip Events Conditions
12:11 AM 10.4 °F 0.8 °F 3.2 °F 73% 30.18 in 7.0 mi SSE 5.8 mph - N/A Snow Light Snow
12:31 AM 10.4 °F 0.8 °F 5.0 °F 79% 30.17 in 5.0 mi SSE 5.8 mph - N/A Snow Light Snow
12:51 AM 10.4 °F 0.8 °F 5.0 °F 79% 30.17 in 4.0 mi SSE 5.8 mph - N/A Snow Light Snow
1:10 AM 10.4 °F 2.2 °F 5.0 °F 79% 30.16 in 4.0 mi SSE 4.6 mph - N/A Snow Light Snow
1:31 AM 10.4 °F 2.2 °F 5.0 °F 79% 30.16 in 3.0 mi SSE 4.6 mph - N/A Snow Light Snow
1:51 AM 10.4 °F 2.2 °F 5.0 °F 79% 30.15 in 4.0 mi SE 4.6 mph - N/A Snow Light Snow
2:11 AM 10.4 °F 2.2 °F 5.0 °F 79% 30.16 in 4.0 mi SSE 4.6 mph - N/A Snow Light Snow
2:30 AM 10.4 °F 2.2 °F 5.0 °F 79% 30.15 in 4.0 mi SE 4.6 mph - N/A Snow Light Snow
2:51 AM 10.4 °F 4.0 °F 5.0 °F 79% 30.15 in 4.0 mi South 3.5 mph - N/A Snow Light Snow
3:11 AM 10.4 °F - 5.0 °F 79% 30.14 in 3.0 mi Calm Calm - N/A Snow Light Snow
3:30 AM 10.4 °F - 5.0 °F 79% 30.13 in 2.5 mi Calm Calm - N/A Snow Light Snow
3:51 AM 10.4 °F - 6.8 °F 85% 30.14 in 5.0 mi Calm Calm - N/A Snow Light Snow
4:11 AM 10.4 °F - 6.8 °F 85% 30.13 in 4.0 mi Calm Calm - N/A Snow Light Snow
4:30 AM 10.4 °F - 6.8 °F 85% 30.13 in 5.0 mi Calm Calm - N/A Snow Light Snow
4:51 AM 10.4 °F - 6.8 °F 85% 30.13 in 7.0 mi Calm Calm - N/A Snow Light Snow
5:11 AM 10.4 °F - 6.8 °F 85% 30.13 in 10.0 mi Calm Calm - N/A   Overcast
5:31 AM 10.4 °F - 6.8 °F 85% 30.13 in 7.0 mi Calm Calm - N/A Snow Light Snow
5:50 AM 10.4 °F - 5.0 °F 79% 30.13 in 10.0 mi Calm Calm - N/A   Scattered Clouds
6:10 AM 8.6 °F - 5.0 °F 85% 30.13 in 7.0 mi Calm Calm - N/A   Clear
6:31 AM 5.0 °F - 1.4 °F 85% 30.13 in 5.0 mi Calm Calm - N/A Snow Light Snow
6:51 AM 6.8 °F - 3.2 °F 85% 30.14 in 3.0 mi Calm Calm - N/A Snow Light Snow
7:11 AM 5.0 °F - 1.4 °F 85% 30.14 in 4.0 mi Calm Calm - N/A Snow Light Snow
7:31 AM 3.2 °F - -0.4 °F 85% 30.15 in 7.0 mi Calm Calm - N/A Snow Light Snow
7:51 AM 5.0 °F - 1.4 °F 85% 30.15 in 7.0 mi Calm Calm - N/A Snow Light Snow
8:11 AM 5.0 °F - 1.4 °F 85% 30.16 in 7.0 mi Calm Calm - N/A Snow Light Snow
8:31 AM 3.2 °F -6.2 °F -0.4 °F 85% 30.16 in 7.0 mi West 4.6 mph - N/A Snow Light Snow
8:51 AM 10.4 °F 0.8 °F 5.0 °F 79% 30.16 in 10.0 mi WNW 5.8 mph - N/A   Clear
9:11 AM 10.4 °F -2.4 °F 6.8 °F 85% 30.18 in 10.0 mi WNW 9.2 mph 16.1 mph N/A   Clear
9:31 AM 10.4 °F -5.4 °F 5.0 °F 79% 30.19 in 10.0 mi NW 13.8 mph - N/A Snow Light Snow
9:51 AM 10.4 °F -6.6 °F 6.8 °F 85% 30.20 in 5.0 mi NW 16.1 mph - N/A Snow Light Snow
10:10 AM 10.4 °F -6.0 °F 5.0 °F 79% 30.21 in 5.0 mi NW 15.0 mph 21.9 mph N/A Snow Light Snow
10:31 AM 10.4 °F -6.0 °F 5.0 °F 79% 30.23 in 10.0 mi NW 15.0 mph - N/A   Clear
10:51 AM 10.4 °F -8.2 °F 6.8 °F 85% 30.24 in 1.8 mi NW 19.6 mph 25.3 mph N/A Snow Light Snow
11:11 AM 10.4 °F -8.2 °F 5.0 °F 79% 30.25 in 5.0 mi NW 19.6 mph 28.8 mph N/A   Haze
11:30 AM 10.4 °F -9.5 °F 5.0 °F 79% 30.26 in 4.0 mi NW 23.0 mph 32.2 mph N/A   Haze
11:50 AM 10.4 °F -9.5 °F 5.0 °F 79% 30.26 in 2.0 mi NW 23.0 mph 29.9 mph N/A   Haze
12:11 PM 10.4 °F -9.5 °F 3.2 °F 73% 30.27 in 4.0 mi NW 23.0 mph 27.6 mph N/A   Haze
12:31 PM 10.4 °F -9.1 °F 3.2 °F 73% 30.26 in 7.0 mi NW 21.9 mph 31.1 mph N/A   Clear
12:51 PM 10.4 °F -9.5 °F 3.2 °F 73% 30.27 in 3.0 mi NW 23.0 mph 28.8 mph N/A   Haze
1:11 PM 10.4 °F -10.7 °F 3.2 °F 73% 30.28 in 2.0 mi NW 26.5 mph 33.4 mph N/A   Haze
1:31 PM 10.4 °F -10.7 °F 1.4 °F 67% 30.28 in 2.5 mi NW 26.5 mph 32.2 mph N/A   Haze
1:51 PM 8.6 °F -11.4 °F 1.4 °F 73% 30.29 in 3.0 mi NW 21.9 mph 34.5 mph N/A   Haze
2:11 PM 8.6 °F -13.1 °F -0.4 °F 67% 30.31 in 1.5 mi NW 26.5 mph 33.4 mph N/A   Haze
2:30 PM 8.6 °F -12.7 °F -0.4 °F 67% 30.32 in 2.0 mi NW 25.3 mph 32.2 mph N/A   Haze
2:51 PM 6.8 °F -14.7 °F -0.4 °F 72% 30.34 in 2.0 mi NNW 24.2 mph 34.5 mph N/A   Haze
3:11 PM 5.0 °F -15.7 °F -4.0 °F 66% 30.35 in 4.0 mi NW 20.7 mph 31.1 mph N/A   Haze
3:30 PM 5.0 °F -16.2 °F -4.0 °F 66% 30.36 in 4.0 mi NW 21.9 mph 27.6 mph N/A   Haze
3:51 PM 3.2 °F -19.0 °F -5.8 °F 66% 30.37 in 5.0 mi NW 23.0 mph 28.8 mph N/A   Haze
4:11 PM 3.2 °F -19.0 °F -5.8 °F 66% 30.39 in 5.0 mi NW 23.0 mph 28.8 mph N/A   Haze
4:31 PM 1.4 °F -21.4 °F -7.6 °F 66% 30.41 in 7.0 mi NNW 23.0 mph 27.6 mph N/A   Clear
4:51 PM 1.4 °F -19.9 °F -7.6 °F 66% 30.43 in 10.0 mi NNW 19.6 mph 26.5 mph N/A   Clear
5:11 PM 1.4 °F -19.4 °F -9.4 °F 61% 30.44 in 10.0 mi NNW 18.4 mph 24.2 mph N/A   Clear
5:31 PM 1.4 °F -20.5 °F -9.4 °F 61% 30.45 in 10.0 mi NNW 20.7 mph 24.2 mph N/A   Clear
5:51 PM -0.4 °F -20.5 °F -9.4 °F 66% 30.46 in 10.0 mi NW 16.1 mph 24.2 mph N/A   Clear
6:10 PM -0.4 °F -20.5 °F -11.2 °F 60% 30.47 in 10.0 mi NNW 16.1 mph 23.0 mph N/A   Clear
6:31 PM -2.2 °F -22.9 °F -11.2 °F 66% 30.48 in 10.0 mi NW 16.1 mph 21.9 mph N/A   Clear
6:51 PM -2.2 °F -21.5 °F -11.2 °F 66% 30.49 in 10.0 mi NW 13.8 mph - N/A   Clear
7:11 PM -4.0 °F -23.7 °F -11.2 °F 71% 30.50 in 10.0 mi NW 13.8 mph - N/A   Clear
7:31 PM -4.0 °F -23.7 °F -13.0 °F 65% 30.50 in 10.0 mi NNW 13.8 mph - N/A   Clear
7:51 PM -4.0 °F -25.2 °F -13.0 °F 65% 30.51 in 10.0 mi NNW 16.1 mph - N/A   Clear
8:11 PM -4.0 °F -25.2 °F -13.0 °F 65% 30.52 in 10.0 mi NNW 16.1 mph - N/A   Clear
8:31 PM -4.0 °F -24.5 °F -13.0 °F 65% 30.52 in 10.0 mi NNW 15.0 mph - N/A   Clear
8:50 PM -4.0 °F -22.1 °F -13.0 °F 65% 30.53 in 10.0 mi NNW 11.5 mph - N/A   Clear
9:11 PM -4.0 °F -21.2 °F -13.0 °F 65% 30.54 in 10.0 mi NW 10.4 mph - N/A   Clear
9:31 PM -4.0 °F -20.2 °F -13.0 °F 65% 30.55 in 10.0 mi NW 9.2 mph - N/A   Clear
9:51 PM -5.8 °F -22.4 °F -14.8 °F 65% 30.56 in 10.0 mi NNW 9.2 mph - N/A   Clear
10:11 PM -5.8 °F -19.9 °F -14.8 °F 65% 30.55 in 10.0 mi North 6.9 mph - N/A   Clear
10:31 PM -5.8 °F -22.4 °F -14.8 °F 65% 30.57 in 10.0 mi NNW 9.2 mph - N/A   Clear
10:51 PM -7.6 °F -22.1 °F -14.8 °F 71% 30.58 in 10.0 mi NNW 6.9 mph - N/A   Clear
11:11 PM -7.6 °F -16.5 °F -14.8 °F 71% 30.58 in 10.0 mi NNW 3.5 mph - N/A   Clear
11:31 PM -7.6 °F -16.5 °F -14.8 °F 71% 30.60 in 10.0 mi NW 3.5 mph - N/A   Clear
11:51 PM -7.6 °F -18.8 °F -14.8 °F 71% 30.60 in 10.0 mi NNW 4.6 mph - N/A   Clear